"Period start","avg(HW err(1)/warn(2) (#))","avg(Visibility (m))","avg(Weather code (#))","avg(Precip intensity (mm/h))","min(HW err(1)/warn(2) (#))","max(HW err(1)/warn(2) (#))","std(HW err(1)/warn(2) (#))","med(HW err(1)/warn(2) (#))","min(Visibility (m))","max(Visibility (m))","std(Visibility (m))","med(Visibility (m))","min(Weather code (#))","max(Weather code (#))","std(Weather code (#))","med(Weather code (#))","min(Precip intensity (mm/h))","max(Precip intensity (mm/h))","std(Precip intensity (mm/h))","med(Precip intensity (mm/h))"
2016-11-26 00:00:00,2,1739,71,2.35,2,2,0,2,1075,2805,556,1616,71,71,0,71,1.05,4.55,1.08,2.10
2016-11-26 00:10:00,2,4436,71,1.23,2,2,0,2,1167,8345,2767,4265,71,71,0,71,0.10,2.95,1.07,1.12
2016-11-26 00:20:00,2,2934,71,0.96,2,2,0,2,2157,4607,681,2722,71,71,0,71,0.35,1.60,0.44,0.75
2016-11-26 00:30:00,2,3270,71,0.81,2,2,0,2,2467,4294,575,3146,71,71,0,71,0.40,1.15,0.21,0.80
2016-11-26 00:40:00,2,5012,71,0.43,2,2,0,2,4222,6694,707,4954,71,71,0,71,0.20,0.75,0.15,0.42
2016-11-26 00:50:00,2,7609,71,0.23,2,2,0,2,6044,10055,996,7589,71,71,0,71,0.10,0.60,0.14,0.17
2016-11-26 01:00:00,2,5073,71,0.43,2,2,0,2,4152,7580,1099,4748,71,71,0,71,0.20,0.90,0.20,0.35
2016-11-26 01:10:00,2,5674,71,0.53,2,2,0,2,5072,6214,376,5702,71,71,0,71,0.20,1.00,0.25,0.45
2016-11-26 01:20:00,2,4420,71,0.47,2,2,0,2,3086,5950,821,4392,71,71,0,71,0.30,0.70,0.13,0.42
2016-11-26 01:30:00,2,3460,71,0.67,2,2,0,2,2231,4686,673,3426,71,71,0,71,0.40,1.15,0.22,0.60
2016-11-26 01:40:00,2,2382,71,0.84,2,2,0,2,2106,2863,257,2288,71,71,0,71,0.40,1.25,0.28,0.88
2016-11-26 01:50:00,2,3933,71,0.68,2,2,0,2,2076,5115,905,3726,71,71,0,71,0.30,1.00,0.21,0.70
2016-11-26 02:00:00,2,7359,71,0.48,2,2,0,2,3045,10667,2522,7784,71,71,0,71,0.05,1.95,0.50,0.35
2016-11-26 02:10:00,2,13281,71,0.18,2,2,0,2,8341,21718,3615,11887,71,71,0,71,0.00,0.50,0.15,0.12
2016-11-26 02:20:00,2,15882,71,0.09,2,2,0,2,12291,19670,2271,15352,71,71,0,71,0.00,0.30,0.10,0.08
2016-11-26 02:30:00,2,17599,73,0.03,2,2,0,2,14187,20228,1635,17784,71,77,3,71,0.00,0.05,0.03,0.03
2016-11-26 02:40:00,2,10278,73,0.07,2,2,0,2,8627,13585,1754,9477,71,77,3,71,0.00,0.25,0.07,0.05
2016-11-26 02:50:00,2,15000,77,0.03,2,2,0,2,9983,23498,5071,12372,71,78,2,78,0.00,0.05,0.02,0.05
2016-11-26 03:00:00,2,17054,76,0.05,2,2,0,2,10791,27141,4979,16352,71,77,2,77,0.00,0.15,0.05,0.05
2016-11-26 03:10:00,2,9249,71,0.26,2,2,0,2,5381,13501,2568,9338,71,71,0,71,0.00,0.65,0.20,0.25
2016-11-26 03:20:00,2,15651,71,0.04,2,2,0,2,7018,19772,3680,16568,71,71,0,71,0.00,0.25,0.08,0.00
2016-11-26 03:30:00,2,11089,71,0.08,2,2,0,2,8499,14045,1639,11186,71,71,0,71,0.00,0.20,0.05,0.05
2016-11-26 03:40:00,2,19100,74,0.07,2,2,0,2,17397,24726,2431,18031,71,77,3,74,0.00,0.20,0.06,0.05
2016-11-26 03:50:00,2,23723,75,0.02,2,2,0,2,18208,29856,3694,25330,71,78,3,77,0.00,0.05,0.02,0.00
2016-11-26 04:00:00,2,36225,78,0.01,2,2,0,2,15016,44755,7812,38048,78,78,0,78,0.00,0.15,0.05,0.00
2016-11-26 04:10:00,2,36545,71,0.01,2,2,0,2,24531,50000,9076,34408,71,71,0,71,0.00,0.10,0.03,0.00
2016-11-26 04:20:00,2,25988,76,0.02,2,2,0,2,12548,33024,6446,26856,71,78,3,78,0.00,0.05,0.02,0.00
2016-11-26 04:30:00,2,20543,78,0.02,2,2,0,2,11586,29739,5239,20909,78,78,0,78,0.00,0.05,0.02,0.00
2016-11-26 04:40:00,2,30752,78,0.00,2,2,0,2,24597,38142,3951,30233,78,78,0,78,0.00,0.00,0.00,0.00
2016-11-26 04:50:00,2,28414,78,0.01,2,2,0,2,23767,34447,3017,28096,78,78,0,78,0.00,0.05,0.02,0.00
2016-11-26 05:00:00,2,24993,78,0.01,2,2,0,2,21625,29598,2926,24696,78,78,0,78,0.00,0.05,0.02,0.00
2016-11-26 05:10:00,2,32414,78,0.01,2,2,0,2,25452,44745,5709,31506,78,78,0,78,0.00,0.05,0.02,0.00
2016-11-26 05:20:00,2,40049,78,0.00,2,2,0,2,36790,46510,3325,38944,78,78,0,78,0.00,0.00,0.00,0.00
2016-11-26 05:30:00,2,29276,78,0.02,2,2,0,2,17648,44638,9156,27740,77,78,0,78,0.00,0.05,0.02,0.00
2016-11-26 05:40:00,2,45956,78,0.00,2,2,0,2,32399,50000,5129,47322,77,78,0,78,0.00,0.00,0.00,0.00
2016-11-26 05:50:00,2,35760,78,0.01,2,2,0,2,16064,46048,9525,38775,78,78,0,78,0.00,0.05,0.02,0.00
2016-11-26 06:00:00,2,20565,78,0.01,2,2,0,2,16771,29593,3941,19398,78,78,0,78,0.00,0.05,0.02,0.00
2016-11-26 06:10:00,2,25648,77,0.03,2,2,0,2,17369,37133,6150,23758,71,78,2,77,0.00,0.15,0.05,0.00
2016-11-26 06:20:00,2,22840,73,0.00,2,2,0,2,18326,29235,3279,22858,71,77,3,71,0.00,0.00,0.00,0.00
2016-11-26 06:30:00,2,38576,77,0.00,2,2,0,2,24416,46889,8448,43256,77,78,0,77,0.00,0.00,0.00,0.00
2016-11-26 06:40:00,2,48063,78,0.00,2,2,0,2,42693,50000,2758,50000,78,78,0,78,0.00,0.00,0.00,0.00
2016-11-26 06:50:00,2,48510,78,0.00,2,2,0,2,44212,50000,1741,49038,78,78,0,78,0.00,0.00,0.00,0.00
2016-11-26 07:00:00,2,49914,70,0.00,2,2,0,2,49138,50000,259,50000,0,78,23,78,0.00,0.00,0.00,0.00
2016-11-26 07:10:00,2,49863,0,0.00,2,2,0,2,48634,50000,410,50000,0,0,0,0,0.00,0.00,0.00,0.00
2016-11-26 07:20:00,2,49872,0,0.00,2,2,0,2,48725,50000,382,50000,0,0,0,0,0.00,0.00,0.00,0.00
2016-11-26 07:30:00,2,37298,61,0.00,2,2,0,2,26522,49327,7202,36944,0,78,31,78,0.00,0.00,0.00,0.00
2016-11-26 07:40:00,2,47933,78,0.00,2,2,0,2,43415,50000,2517,49390,78,78,0,78,0.00,0.00,0.00,0.00
2016-11-26 07:50:00,2,41172,78,0.01,2,2,0,2,25116,50000,8546,41325,78,78,0,78,0.00,0.05,0.02,0.00
2016-11-26 08:00:00,2,28997,78,0.01,2,2,0,2,21764,36165,3783,28968,78,78,0,78,0.00,0.05,0.02,0.00
2016-11-26 08:10:00,2,35789,78,0.00,2,2,0,2,25798,46869,8052,36676,78,78,0,78,0.00,0.00,0.00,0.00
2016-11-26 08:20:00,2,37057,78,0.01,2,2,0,2,29739,47924,6244,34182,78,78,0,78,0.00,0.05,0.02,0.00
2016-11-26 08:30:00,2,33884,78,0.00,2,2,0,2,25273,46194,6451,33438,78,78,0,78,0.00,0.00,0.00,0.00
2016-11-26 08:40:00,2,37933,78,0.00,2,2,0,2,28830,45822,5476,38764,78,78,0,78,0.00,0.00,0.00,0.00
2016-11-26 08:50:00,2,25467,78,0.02,2,2,0,2,12220,42322,10570,29338,78,78,0,78,0.00,0.05,0.02,0.00
2016-11-26 09:00:00,2,16160,78,0.04,2,2,0,2,10902,23728,4348,14540,78,78,0,78,0.00,0.05,0.02,0.05
2016-11-26 09:10:00,2,31351,78,0.00,2,2,0,2,27467,39468,3897,30550,78,78,0,78,0.00,0.00,0.00,0.00
2016-11-26 09:20:00,2,43841,78,0.00,2,2,0,2,33423,50000,5780,46014,78,78,0,78,0.00,0.00,0.00,0.00
2016-11-26 09:30:00,2,46564,78,0.00,2,2,0,2,38331,50000,4098,48968,78,78,0,78,0.00,0.00,0.00,0.00
2016-11-26 09:40:00,2,48577,78,0.00,2,2,0,2,44669,50000,1955,50000,78,78,0,78,0.00,0.00,0.00,0.00
2016-11-26 09:50:00,2,38456,78,0.00,2,2,0,2,33233,49028,4329,37273,78,78,0,78,0.00,0.00,0.00,0.00
2016-11-26 10:00:00,2,41251,78,0.01,2,2,0,2,23609,48167,6810,44122,78,78,0,78,0.00,0.05,0.02,0.00
2016-11-26 10:10:00,2,30242,78,0.01,2,2,0,2,21027,41474,6846,30414,78,78,0,78,0.00,0.05,0.02,0.00
2016-11-26 10:20:00,2,21048,78,0.03,2,2,0,2,13222,28866,5033,22320,78,78,0,78,0.00,0.10,0.04,0.00
2016-11-26 10:30:00,2,12418,78,0.07,2,2,0,2,10687,14100,1030,12546,78,78,0,78,0.05,0.10,0.02,0.05
2016-11-26 10:40:00,2,12533,78,0.07,2,2,0,2,11481,13750,790,12388,78,78,0,78,0.05,0.10,0.02,0.05
2016-11-26 10:50:00,2,9698,78,0.28,2,2,0,2,3079,13323,3393,11355,77,78,0,78,0.00,1.10,0.40,0.08
2016-11-26 11:00:00,2,3796,72,0.98,2,2,0,2,2525,6230,1284,3215,71,78,2,71,0.15,2.10,0.65,0.97
2016-11-26 11:10:00,2,11598,72,0.04,2,2,0,2,6471,16247,3134,11823,71,77,2,71,0.00,0.10,0.04,0.03
2016-11-26 11:20:00,2,25199,77,0.00,2,2,0,2,16528,35851,5678,25962,71,78,2,78,0.00,0.00,0.00,0.00
2016-11-26 11:30:00,2,31618,78,0.00,2,2,0,2,26209,35518,3120,32060,78,78,0,78,0.00,0.00,0.00,0.00
2016-11-26 11:40:00,2,29551,78,0.00,2,2,0,2,19184,38921,7008,31558,78,78,0,78,0.00,0.00,0.00,0.00
2016-11-26 11:50:00,2,21857,78,0.00,2,2,0,2,17771,27211,2768,21750,78,78,0,78,0.00,0.00,0.00,0.00
2016-11-26 12:00:00,2,33927,78,0.00,2,2,0,2,22837,43376,7927,35824,78,78,0,78,0.00,0.00,0.00,0.00
2016-11-26 12:10:00,2,33708,78,0.00,2,2,0,2,27398,40474,3912,33527,78,78,0,78,0.00,0.00,0.00,0.00
2016-11-26 12:20:00,2,14121,78,0.00,2,2,0,2,8486,28670,6977,11798,78,78,0,78,0.00,0.00,0.00,0.00
2016-11-26 12:30:00,2,13936,78,0.00,2,2,0,2,7855,25196,4687,12597,78,78,0,78,0.00,0.00,0.00,0.00
2016-11-26 12:40:00,2,34383,78,0.00,2,2,0,2,18176,45847,9985,33920,78,78,0,78,0.00,0.00,0.00,0.00
2016-11-26 12:50:00,2,30000,78,0.01,2,2,0,2,19397,39178,4894,29678,78,78,0,78,0.00,0.05,0.02,0.00
2016-11-26 13:00:00,2,34382,78,0.00,2,2,0,2,24594,45634,6527,33064,78,78,0,78,0.00,0.00,0.00,0.00
2016-11-26 13:10:00,2,29183,78,0.00,2,2,0,2,24387,34839,3539,28316,78,78,0,78,0.00,0.00,0.00,0.00
2016-11-26 13:20:00,2,39121,78,0.00,2,2,0,2,30944,46170,4680,39118,78,78,0,78,0.00,0.00,0.00,0.00
2016-11-26 13:30:00,2,36620,78,0.00,2,2,0,2,24818,46834,8006,35968,78,78,0,78,0.00,0.00,0.00,0.00
2016-11-26 13:40:00,2,40442,78,0.00,2,2,0,2,30873,50000,5558,39623,78,78,0,78,0.00,0.00,0.00,0.00
2016-11-26 13:50:00,2,49441,78,0.00,2,2,0,2,47170,50000,877,50000,78,78,0,78,0.00,0.00,0.00,0.00
2016-11-26 14:00:00,2,48979,78,0.00,2,2,0,2,42809,50000,2154,49944,78,78,0,78,0.00,0.00,0.00,0.00
2016-11-26 14:10:00,2,46469,78,0.00,2,2,0,2,41140,50000,3157,46631,78,78,0,78,0.00,0.00,0.00,0.00
2016-11-26 14:20:00,2,41164,78,0.00,2,2,0,2,33294,50000,5489,40080,78,78,0,78,0.00,0.00,0.00,0.00
2016-11-26 14:30:00,2,25288,78,0.00,2,2,0,2,18368,41121,6387,22574,78,78,0,78,0.00,0.00,0.00,0.00
2016-11-26 14:40:00,2,21962,78,0.00,2,2,0,2,17121,26480,2653,21711,78,78,0,78,0.00,0.00,0.00,0.00
2016-11-26 14:50:00,2,13120,78,0.03,2,2,0,2,10034,16870,2562,12701,78,78,0,78,0.00,0.05,0.02,0.05
2016-11-26 15:00:00,2,10154,78,0.03,2,2,0,2,8859,12597,1032,9850,78,78,0,78,0.00,0.05,0.02,0.05
2016-11-26 15:10:00,2,8680,78,0.05,2,2,0,2,7392,10594,858,8766,78,78,0,78,0.00,0.10,0.02,0.05
2016-11-26 15:20:00,2,8924,78,0.05,2,2,0,2,8069,9549,442,8944,78,78,0,78,0.05,0.05,0.00,0.05
2016-11-26 15:30:00,2,8050,78,0.06,2,2,0,2,6196,10882,1400,8162,78,78,0,78,0.00,0.10,0.03,0.05
2016-11-26 15:40:00,2,7963,75,0.10,2,2,0,2,7129,8649,471,8050,71,78,3,78,0.05,0.50,0.14,0.05
2016-11-26 15:50:00,2,8126,76,0.04,2,2,0,2,7443,8770,449,8088,71,78,3,78,0.00,0.05,0.02,0.05
2016-11-26 16:00:00,2,9834,78,0.00,2,2,0,2,8772,10369,436,9960,78,78,0,78,0.00,0.00,0.00,0.00
2016-11-26 16:10:00,2,9756,78,0.00,2,2,0,2,9374,10229,310,9723,78,78,0,78,0.00,0.00,0.00,0.00
2016-11-26 16:20:00,2,11160,78,0.00,2,2,0,2,10109,12505,730,11244,78,78,0,78,0.00,0.00,0.00,0.00
2016-11-26 16:30:00,2,15594,78,0.00,2,2,0,2,13442,16805,1027,15819,78,78,0,78,0.00,0.00,0.00,0.00
2016-11-26 16:40:00,2,15367,55,0.00,2,2,0,2,13946,16352,784,15363,0,78,36,78,0.00,0.00,0.00,0.00
2016-11-26 16:50:00,2,15845,0,0.00,2,2,0,2,12897,22929,2704,14918,0,0,0,0,0.00,0.00,0.00,0.00
2016-11-26 17:00:00,2,31875,0,0.00,2,2,0,2,25616,42337,4897,31568,0,0,0,0,0.00,0.00,0.00,0.00
2016-11-26 17:10:00,2,17906,14,0.00,2,2,0,2,9215,41988,11680,11070,0,71,28,0,0.00,0.00,0.00,0.00
2016-11-26 17:20:00,2,28436,78,0.00,2,2,0,2,12462,50000,15091,23586,78,78,0,78,0.00,0.00,0.00,0.00
2016-11-26 17:30:00,2,38388,31,0.00,2,2,0,2,8103,50000,15918,47222,0,78,38,0,0.00,0.00,0.00,0.00
2016-11-26 17:40:00,2,11847,14,0.00,2,2,0,2,8753,16400,2589,10958,0,71,28,0,0.00,0.00,0.00,0.00
2016-11-26 17:50:00,2,14060,78,0.00,2,2,0,2,12170,16731,1425,14443,78,78,0,78,0.00,0.00,0.00,0.00
2016-11-26 18:00:00,2,13460,78,0.00,2,2,0,2,10675,17274,2141,12959,78,78,0,78,0.00,0.00,0.00,0.00
2016-11-26 18:10:00,2,13359,78,0.00,2,2,0,2,12009,15086,1121,13383,78,78,0,78,0.00,0.00,0.00,0.00
2016-11-26 18:20:00,2,10152,78,0.00,2,2,0,2,8818,12950,1215,9878,78,78,0,78,0.00,0.00,0.00,0.00
2016-11-26 18:30:00,2,37416,39,0.00,2,2,0,2,17108,50000,13114,43150,0,78,39,39,0.00,0.00,0.00,0.00
2016-11-26 18:40:00,2,45900,0,0.00,2,2,0,2,34802,50000,5869,50000,0,0,0,0,0.00,0.00,0.00,0.00
2016-11-26 18:50:00,2,50000,0,0.00,2,2,0,2,50000,50000,0,50000,0,0,0,0,0.00,0.00,0.00,0.00
2016-11-26 19:00:00,2,49799,0,0.00,1,2,0,2,48996,50000,402,50000,0,0,0,0,0.00,0.00,0.00,0.00
2016-11-26 19:10:00,1,0,,0.00,1,2,0,1,0,0,0,0,,,,,0.00,0.00,0.00,0.00
2016-11-26 19:20:00,1,0,,0.00,1,2,0,1,0,0,0,0,,,,,0.00,0.00,0.00,0.00
2016-11-26 19:30:00,2,43750,0,0.00,1,2,0,2,0,50000,16536,50000,0,0,0,0,0.00,0.00,0.00,0.00
2016-11-26 19:40:00,1,33333,0,0.00,1,2,0,1,0,50000,23570,50000,0,0,0,0,0.00,0.00,0.00,0.00
2016-11-26 19:50:00,1,,,,1,1,0,1,,,,,,,,,,,,
2016-11-26 20:00:00,1,,,,1,1,0,1,,,,,,,,,,,,
2016-11-26 20:10:00,2,11562,0,0.00,1,2,0,2,8516,13894,1765,11808,0,0,0,0,0.00,0.00,0.00,0.00
2016-11-26 20:20:00,2,11218,0,0.00,2,2,0,2,10136,12887,924,10820,0,0,0,0,0.00,0.00,0.00,0.00
2016-11-26 20:30:00,2,9940,0,0.00,2,2,0,2,9002,11955,912,9665,0,0,0,0,0.00,0.00,0.00,0.00
2016-11-26 20:40:00,2,9256,30,0.00,2,2,0,2,8330,10587,724,9311,0,78,37,0,0.00,0.00,0.00,0.00
2016-11-26 20:50:00,2,8392,77,0.00,2,2,0,2,7729,9560,513,8242,77,78,0,77,0.00,0.00,0.00,0.00
2016-11-26 21:00:00,2,8258,78,0.02,2,2,0,2,7207,9237,593,8208,77,78,0,78,0.00,0.05,0.02,0.00
2016-11-26 21:10:00,2,11326,78,0.00,2,2,0,2,9042,12612,1122,11268,77,78,0,78,0.00,0.00,0.00,0.00
2016-11-26 21:20:00,2,9738,77,0.00,2,2,0,2,7688,13182,1705,8922,77,78,0,77,0.00,0.00,0.00,0.00
2016-11-26 21:30:00,2,11803,78,0.00,2,2,0,2,10209,13576,1021,12084,78,78,0,78,0.00,0.00,0.00,0.00
2016-11-26 21:40:00,2,10916,78,0.00,2,2,0,2,9482,12709,1111,10547,77,78,0,78,0.00,0.00,0.00,0.00
2016-11-26 21:50:00,2,14387,78,0.00,2,2,0,2,11789,16051,1411,14748,78,78,0,78,0.00,0.00,0.00,0.00
2016-11-26 22:00:00,2,27436,70,0.00,2,2,0,2,17103,50000,11513,21732,0,78,23,78,0.00,0.00,0.00,0.00
2016-11-26 22:10:00,2,48996,0,0.00,2,2,0,2,44701,50000,2012,50000,0,0,0,0,0.00,0.00,0.00,0.00
2016-11-26 22:20:00,2,49925,0,0.00,1,2,0,2,49476,50000,183,50000,0,0,0,0,0.00,0.00,0.00,0.00
2016-11-26 22:30:00,1,0,,0.00,1,2,0,1,0,0,0,0,,,,,0.00,0.00,0.00,0.00
2016-11-26 22:40:00,1,,,,1,1,0,1,,,,,,,,,,,,
2016-11-26 22:50:00,1,,,,1,1,0,1,,,,,,,,,,,,
2016-11-26 23:00:00,1,,,,1,1,0,1,,,,,,,,,,,,
2016-11-26 23:10:00,1,,,,1,1,0,1,,,,,,,,,,,,
2016-11-26 23:20:00,1,0,,0.00,1,2,0,1,0,0,0,0,,,,,0.00,0.00,0.00,0.00
2016-11-26 23:30:00,2,45000,0,0.00,2,2,0,2,0,50000,15000,50000,0,0,0,0,0.00,0.00,0.00,0.00
2016-11-26 23:40:00,2,50000,0,0.00,2,2,0,2,50000,50000,0,50000,0,0,0,0,0.00,0.00,0.00,0.00
2016-11-26 23:50:00,2,50000,0,0.00,2,2,0,2,50000,50000,0,50000,0,0,0,0,0.00,0.00,0.00,0.00
